Location: ??
(35.5052°N, 139.7262°E)
Time: 16:45:16
(UTC+00:00)

Cosmos 2360 Rocket - Pass Details

Date: 20 June 2021
Orbit: 835 x 843 km, 71.0° (Epoch: 29 July)

Event Time Altitude Azimuth Distance (km) Brightness Sun altitude
Rises 12:07:54 0° 229° (SW) 3,382 5.3 -20.6°
Reaches altitude 10° 12:10:38 10° 240° (WSW) 2,450 4.7 -20.9°
Maximum altitude 12:15:29 29° 299° (WNW) 1,487 4.1 -21.5°
Drops below altitude 10° 12:20:21 10° 359° (N) 2,456 5.4 -22.1°
Sets 12:23:07 0° 11° (N) 3,393 6.0 -22.4°
